Date String (YYYY-MM-DD hh:mm:ss) UTC,Instrument flags,absolute air pressure of the measurement (hPa),sample flow rate (lpm),inlet stack bypass flow (lpm),air temperature of the measurement (°C),ambient temperature measured by the external sensor (°C),aerosol sample conditioner tube jacket temperature (°C),OPC LED temperature (°C),internal box temperature (°C),relative humidity of the measurement (%),span deviation,mass concentration of particles derived from Lorenz-Mie calculation of OPC scattering (μg/m³),mass concentration of particles derived from Lorenz-Mie calculation of OPC scattering (μg/m³),mass concentration of particles derived from Lorenz-Mie calculation of OPC scattering (μg/m³)
DateTimeUTC,F1_M11,P_M11,Q1_M11,Q2_M11,T1_M11,T2_M11,T3_M11,T4_M11,T5_M11,U1_M11,ZSPAN_M11,X2_M11,X0_M11,X1_M11
2024-04-18 18:00:00,SystemResetWarning,0834.5,5.01,000.00,020.6,020.0,000.0,029.2,022.5,020.8,0000.0,0005.94,0007.92,0005.69
2024-04-18 18:01:00,SystemResetWarning,0834.5,5.00,000.00,020.6,020.0,000.0,029.2,022.5,020.3,0000.0,0005.93,0007.87,0005.69
2024-04-18 18:02:00,SystemResetWarning,0834.5,5.00,000.00,020.6,020.0,000.0,029.2,022.5,020.4,0000.0,0005.92,0007.85,0005.69
2024-04-18 18:03:00,SystemResetWarning,0834.4,5.00,000.00,020.6,020.0,000.0,029.2,022.5,020.2,0000.0,0005.90,0007.82,0005.68
2024-04-18 18:04:00,SystemResetWarning,0834.4,5.01,000.00,020.6,020.0,000.0,029.2,022.5,020.3,0000.0,0005.90,0007.85,0005.67
2024-04-18 18:05:00,SystemResetWarning,0834.4,5.00,000.00,020.6,020.0,000.0,029.2,022.5,020.6,0000.0,0005.91,0007.81,0005.68
2024-04-18 18:06:00,SystemResetWarning,0834.5,4.99,000.00,020.6,020.0,000.0,029.2,022.5,020.8,0000.0,0005.92,0007.82,0005.68
2024-04-18 18:07:00,SystemResetWarning,0834.4,4.99,000.00,020.6,019.9,000.0,029.2,022.4,020.7,0000.0,0005.90,0007.78,0005.67
2024-04-18 18:08:00,SystemResetWarning,0834.4,5.00,000.00,020.6,019.9,000.0,029.2,022.4,020.9,0000.0,0005.91,0007.87,0005.66
2024-04-18 18:09:00,SystemResetWarning,0834.4,5.01,000.00,020.6,019.9,000.0,029.2,022.4,021.1,0000.0,0005.95,0007.92,0005.69
2024-04-18 18:10:00,SystemResetWarning,0834.4,5.00,000.00,020.6,019.9,000.0,029.2,022.4,021.0,0000.0,0005.99,0007.97,0005.72
2024-04-18 18:11:00,SystemResetWarning,0834.4,4.99,000.00,020.6,019.9,000.0,029.2,022.4,021.0,0000.0,0006.02,0008.04,0005.74
2024-04-18 18:12:00,SystemResetWarning,0834.4,4.99,000.00,020.5,019.9,000.0,029.2,022.3,021.2,0000.0,0006.04,0008.09,0005.75
2024-04-18 18:13:00,SystemResetWarning,0834.4,5.01,000.00,020.5,019.8,000.0,029.2,022.3,021.2,0000.0,0006.05,0008.11,0005.76
2024-04-18 18:14:00,SystemResetWarning,0834.3,5.01,000.00,020.5,019.8,000.0,029.1,022.3,021.2,0000.0,0006.06,0008.10,0005.77
2024-04-18 18:15:00,SystemResetWarning,0834.4,5.01,000.00,020.5,019.8,000.0,029.1,022.3,021.2,0000.0,0006.07,0008.12,0005.79
2024-04-18 18:16:00,SystemResetWarning,0834.3,5.00,000.00,020.5,019.8,000.0,029.1,022.3,021.3,0000.0,0006.08,0008.11,0005.80
2024-04-18 18:17:00,SystemResetWarning,0834.4,4.98,000.00,020.5,019.8,000.0,029.1,022.3,021.5,0000.0,0006.05,0008.01,0005.81
2024-04-18 18:18:00,SystemResetWarning,0834.3,4.99,000.00,020.5,019.8,000.0,029.1,022.2,021.4,0000.0,0006.08,0008.08,0005.83
2024-04-18 18:19:00,SystemResetWarning,0834.4,5.01,000.00,020.5,019.8,000.0,029.1,022.2,021.4,0000.0,0006.10,0008.04,0005.85
2024-04-18 18:20:00,SystemResetWarning,0834.4,5.01,000.00,020.5,019.8,000.0,029.1,022.2,021.4,0000.0,0006.13,0008.05,0005.87
2024-04-18 18:21:00,SystemResetWarning,0834.4,5.00,000.00,020.4,019.8,000.0,029.1,022.2,021.4,0000.0,0006.15,0008.10,0005.87
2024-04-18 18:22:00,SystemResetWarning,0834.4,4.99,000.00,020.4,019.8,000.0,029.1,022.2,021.7,0000.0,0006.15,0008.08,0005.88
2024-04-18 18:23:00,SystemResetWarning,0834.5,5.00,000.00,020.4,019.8,000.0,029.0,022.2,021.9,0000.0,0006.15,0008.55,0005.87
2024-04-18 18:24:00,SystemResetWarning,0834.3,5.01,000.00,020.4,019.8,000.0,029.0,022.2,021.3,0000.0,0006.12,0008.50,0005.85
2024-04-18 18:25:00,SystemResetWarning,0834.3,5.00,000.00,020.4,019.8,000.0,029.0,022.2,021.2,0000.0,0006.10,0008.50,0005.82
2024-04-18 18:26:00,SystemResetWarning,0834.3,5.01,000.00,020.4,019.8,000.0,029.0,022.2,021.1,0000.0,0006.07,0008.43,0005.81
2024-04-18 18:27:00,SystemResetWarning,0834.3,5.01,000.00,020.4,019.8,000.0,029.0,022.2,021.4,0000.0,0006.07,0008.58,0005.78
2024-04-18 18:28:00,SystemResetWarning,0834.4,5.00,000.00,020.4,019.8,000.0,029.0,022.2,021.7,0000.0,0006.07,0009.10,0005.77
2024-04-18 18:29:00,SystemResetWarning,0834.3,4.99,000.00,020.4,019.8,000.0,029.0,022.3,021.6,0000.0,0006.04,0009.01,0005.76
2024-04-18 18:30:00,SystemResetWarning,0834.4,5.00,000.00,020.4,019.8,000.0,029.0,022.3,021.9,0000.0,0006.02,0008.96,0005.74
2024-04-18 18:31:00,SystemResetWarning,0834.2,5.00,000.00,020.5,019.8,000.0,029.0,022.3,022.0,0000.0,0005.99,0008.92,0005.73
2024-04-18 18:32:00,SystemResetWarning,0834.3,5.00,000.00,020.5,019.8,000.0,029.0,022.3,022.2,0000.0,0005.97,0008.89,0005.72
2024-04-18 18:33:00,SystemResetWarning,0834.4,5.00,000.00,020.5,019.9,000.0,029.0,022.3,021.9,0000.0,0005.93,0008.80,0005.71
2024-04-18 18:34:00,SystemResetWarning,0834.2,5.00,000.00,020.5,019.9,000.0,029.0,022.3,021.1,0000.0,0005.90,0008.37,0005.69
2024-04-18 18:35:00,SystemResetWarning,0834.3,5.00,000.00,020.5,019.8,000.0,029.0,022.3,021.0,0000.0,0005.88,0008.48,0005.66
2024-04-18 18:36:00,SystemResetWarning,0834.5,5.00,000.00,020.5,019.8,000.0,029.0,022.3,020.9,0000.0,0005.88,0008.51,0005.64
2024-04-18 18:37:00,SystemResetWarning,0834.4,5.00,000.00,020.5,019.8,000.0,029.0,022.3,021.3,0000.0,0005.89,0008.59,0005.63
2024-04-18 18:38:00,SystemResetWarning,0834.2,4.99,000.00,020.5,019.8,000.0,029.0,022.3,021.8,0000.0,0005.87,0008.41,0005.64
2024-04-18 18:39:00,SystemResetWarning,0834.1,5.00,000.00,020.5,019.8,000.0,029.0,022.3,022.3,0000.0,0005.86,0007.89,0005.64
2024-04-18 18:40:00,SystemResetWarning,0834.2,5.00,000.00,020.5,019.8,000.0,029.0,022.3,022.1,0000.0,0005.86,0007.91,0005.64
2024-04-18 18:41:00,SystemResetWarning,0834.2,5.00,000.00,020.5,019.8,000.0,029.0,022.3,021.7,0000.0,0005.88,0007.96,0005.65
2024-04-18 18:42:00,SystemResetWarning,0834.5,5.00,000.00,020.5,019.8,000.0,029.0,022.3,022.2,0000.0,0005.89,0007.97,0005.67
2024-04-18 18:43:00,SystemResetWarning,0834.4,5.01,000.00,020.5,019.8,000.0,029.0,022.3,022.3,0000.0,0005.90,0007.94,0005.68
2024-04-18 18:44:00,SystemResetWarning,0834.5,5.00,000.00,020.5,019.8,000.0,029.0,022.3,021.6,0000.0,0005.94,0008.00,0005.70
2024-04-18 18:45:00,SystemResetWarning,0834.5,4.99,000.00,020.5,019.8,000.0,029.0,022.3,021.5,0000.0,0006.00,0008.05,0005.71
2024-04-18 18:46:00,SystemResetWarning,0834.2,5.00,000.00,020.5,019.8,000.0,029.0,022.3,021.2,0000.0,0006.08,0008.04,0005.76
2024-04-18 18:47:00,SystemResetWarning,0834.2,4.99,000.00,020.4,019.8,000.0,029.0,022.3,020.9,0000.0,0006.10,0008.04,0005.79
2024-04-18 18:48:00,SystemResetWarning,0834.2,5.00,000.00,020.4,019.8,000.0,029.0,022.2,021.0,0000.0,0006.10,0007.98,0005.81
2024-04-18 18:49:00,SystemResetWarning,0834.2,5.00,000.00,020.4,019.8,000.0,029.0,022.2,020.9,0000.0,0006.12,0008.02,0005.81
2024-04-18 18:50:00,SystemResetWarning,0834.2,5.00,000.00,020.4,019.8,000.0,029.0,022.2,021.2,0000.0,0006.14,0008.07,0005.82
2024-04-18 18:51:00,SystemResetWarning,0834.2,5.00,000.00,020.4,019.8,000.0,029.0,022.3,021.3,0000.0,0006.17,0008.12,0005.83
2024-04-18 18:52:00,SystemResetWarning,0834.2,5.01,000.00,020.4,019.8,000.0,029.0,022.2,021.4,0000.0,0006.18,0008.12,0005.84
2024-04-18 18:53:00,SystemResetWarning,0834.2,5.00,000.00,020.4,019.8,000.0,029.0,022.2,021.5,0000.0,0006.18,0008.15,0005.83
2024-04-18 18:54:00,SystemResetWarning,0834.2,4.99,000.00,020.4,019.8,000.0,029.0,022.2,021.6,0000.0,0006.18,0008.17,0005.83
2024-04-18 18:55:00,SystemResetWarning,0834.2,4.99,000.00,020.4,019.7,000.0,028.9,022.2,021.8,0000.0,0006.16,0008.09,0005.82
2024-04-18 18:56:00,SystemResetWarning,0834.2,5.01,000.00,020.4,019.7,000.0,028.9,022.2,021.9,0000.0,0006.14,0008.04,0005.83
2024-04-18 18:57:00,SystemResetWarning,0834.2,5.01,000.00,020.3,019.7,000.0,028.9,022.1,021.8,0000.0,0006.11,0008.40,0005.84
2024-04-18 18:58:00,SystemResetWarning,0834.2,5.00,000.00,020.3,019.7,000.0,028.9,022.1,021.9,0000.0,0006.13,0008.48,0005.87
2024-04-18 18:59:00,SystemResetWarning,0834.2,4.99,000.00,020.3,019.7,000.0,028.9,022.1,022.0,0000.0,0006.13,0008.47,0005.88
